Regional Weather Roundup
Issued by NWS Little Rock, AR

Home | Current Version | Previous Version | Text Only | Print | Product List | Glossary On
Versions: 1 2 3 4 5 6 7 8 9 10 11 12 13 14 15 16 17 18 19 20 21 22 23 24 25 26 27 28 29 30 31 32 33 34 35 36 37 38 39 40 41 42 43 44 45 46 47 48 49 50
000
ASUS44 KLZK 251710
RWRLZK

WEATHER ROUNDUP FOR ARKANSAS
NATIONAL WEATHER SERVICE LITTLE ROCK AR
1200 PM CDT SUN OCT 25 2020

NOTE: "FAIR" INDICATES FEW OR NO CLOUDS BELOW 12,000 FEET WITH NO
SIGNIFICANT WEATHER AND/OR OBSTRUCTIONS TO VISIBILITY.

ARZ001-003-010-029-251800-
NORTHWEST ARKANSAS

CITY           SKY/WX    TMP DP  RH WIND       PRES   REMARKS
FAYETTEVILLE   CLOUDY    50  42  74 E3        30.08F
FORT SMITH     CLOUDY    54  45  71 VRB5      30.08F
HARRISON       CLOUDY    48  40  73 NE6       30.08S
BENTONVILLE    CLOUDY    48  44  86 NE5       30.11F
ROGERS         CLOUDY    48  42  80 NW5       30.10S
SILOAM SPGS    CLOUDY    49  43  80 VRB6      30.09F
HIGHFILL       CLOUDY    49  42  77 NE7       30.08F
SPRINGDALE     CLOUDY    48  46  93 NE5       30.10R
$$

ARZ004-005-016-251800-
NORTH CENTRAL ARKANSAS

CITY           SKY/WX    TMP DP  RH WIND       PRES   REMARKS
BATESVILLE     CLOUDY    48  47  96 VRB3      30.07F
FLIPPIN        CLOUDY    50  42  74 VRB3      30.09F
MTN HOME       CLOUDY    49  40  71 VRB3      30.08S
$$

ARZ040-041-251800-
WEST CENTRAL ARKANSAS

CITY           SKY/WX    TMP DP  RH WIND       PRES   REMARKS
MENA           CLOUDY    52  48  87 N3        30.06S
MOUNT IDA      CLOUDY    54  45  71 VRB5      30.05S
$$

ARZ009-017-025-026-028-251800-
NORTHEAST ARKANSAS

CITY           SKY/WX    TMP DP  RH WIND       PRES   REMARKS
JONESBORO      CLOUDY    52  46  80 N3        30.07S
NEWPORT        CLOUDY    49  47  93 N8        30.08R
WALNUT RIDGE   CLOUDY    51  45  79 N5        30.08S
BLYTHEVILLE    CLOUDY    57  48  72 CALM      30.04F
$$

ARZ032-043-044-251800-
LITTLE ROCK METRO AREA

CITY           SKY/WX    TMP DP  RH WIND       PRES   REMARKS
LITTLE ROCK    CLOUDY    50  46  86 NE3       30.08F
N LTL ROCK NWS   N/A     49  46  91 CALM      30.11F
NLR AIRPORT    PTSUNNY   46  45  93 NE5       30.06F FOG
BENTON         CLOUDY    50  46  87 N3        30.08S
JACKSONVILLE   CLOUDY    51  46  83 NW5       30.07F
CONWAY         CLOUDY    50  48  93 CALM      30.08S
$$

ARZ022-023-033-042-251800-
REMAINDER OF CENTRAL ARKANSAS

CITY           SKY/WX    TMP DP  RH WIND       PRES   REMARKS
SEARCY         CLOUDY    51  47  86 N6        30.08S FOG
HOT SPRINGS    CLOUDY    52  46  80 VRB5      30.08S
RUSSELLVILLE   CLOUDY    53  41  63 N6        30.08S
CLINTON        CLOUDY    52  45  76 VRB6      30.08F
$$

ARZ036-251800-
EAST ARKANSAS

CITY           SKY/WX    TMP DP  RH WIND       PRES   REMARKS
WEST MEMPHIS   CLOUDY    54  50  86 VRB3      30.04F
$$

ARZ050-053-066-070-073-251800-
SOUTHWEST ARKANSAS

CITY           SKY/WX    TMP DP  RH WIND       PRES   REMARKS
ARKADELPHIA    CLOUDY    54  48  80 VRB7      30.08F
TEXARKANA      CLOUDY    55  49  80 SE5       30.06F
EL DORADO      CLOUDY    53  51  93 NE3       30.07F
DE QUEEN       CLOUDY    56  49  77 E5        30.05S
$$

ARZ056-057-069-251800-
SOUTHEAST ARKANSAS

CITY           SKY/WX    TMP DP  RH WIND       PRES   REMARKS
PINE BLUFF     CLOUDY    51  46  83 N7        30.08S
STUTTGART      CLOUDY    51  48  89 N5        30.08S
MONTICELLO     CLOUDY    53  49  86 CALM      30.07R

$$





USA.gov is the U.S. government's official web portal to all federal, state and local government web resources and services.